| time (UTC) | temp F | wind direction | speed MPH | gust MPH | rain 1hr in | rain 24hr in | rain mn in | humidity % | barometer mb |
| 20260509024307 | 0 | 0.0 | 0.0 | 0.00 | 0.08 | 0.08 | |||
| 20260509023802 | 0 | 0.0 | 0.0 | 0.00 | 0.08 | 0.08 | |||
| 20260509023303 | 0 | 0.0 | 0.0 | 0.00 | 0.08 | 0.08 | |||
| 20260509022802 | 0 | 0.0 | 0.0 | 0.00 | 0.08 | 0.08 | |||
| 20260509022306 | 0 | 0.0 | 0.0 | 0.00 | 0.08 | 0.08 | |||
| 20260509021801 | 0 | 0.0 | 0.0 | 0.00 | 0.08 | 0.08 | |||
| 20260509021302 | 0 | 330 | 7.0 | 0.0 | 0.00 | 0.08 | 0.08 | ||
| 20260509020257 | 0 | 330 | 7.0 | 7.0 | 0.00 | 0.08 | 0.08 | ||
| 20260509015245 | 0 | 0.0 | 0.0 | 0.00 | 0.08 | 0.08 | |||
| 20260509014739 | 0 | 0.0 | 0.0 | 0.00 | 0.08 | 0.08 | |||
| 20260509013735 | 0 | 0.0 | 0.0 | 0.00 | 0.08 | 0.08 | |||
| 20260509012730 | 73 | 75 | 3.0 | 7.0 | 0.00 | 0.08 | 0.08 | 84 | 1012.8 |
| 20260509012230 | 73 | 75 | 3.0 | 7.0 | 0.00 | 0.08 | 0.08 | 84 | 1012.8 |
| 20260509011731 | 0 | 127 | 2.0 | 3.0 | 0.00 | 0.08 | 0.08 | ||
| 20260509011226 | 0 | 102 | 2.0 | 3.0 | 0.00 | 0.08 | 0.08 | ||
| 20260509010712 | 0 | 0.0 | 0.0 | 0.00 | 0.08 | 0.08 | |||
| 20260509010202 | 0 | 0 | 0.0 | 0.0 | 0.00 | 0.08 | 0.08 | ||
| 20260509005701 | 0 | 0 | 0.0 | 0.0 | 0.00 | 0.08 | 0.08 | ||
| 20260509004701 | 0 | 0 | 1.0 | 3.0 | 0.00 | 0.08 | 0.08 | ||
| 20260509004202 | 0 | 115 | 2.0 | 3.0 | 0.00 | 0.08 | 0.08 | ||
| 20260509003701 | 0 | 34 | 0.0 | 0.0 | 0.00 | 0.08 | 0.08 | ||
| 20260509003202 | 73 | 112 | 4.0 | 3.0 | 0.00 | 0.08 | 0.08 | 84 | 1012.8 |
| 20260509002702 | 73 | 112 | 4.0 | 7.0 | 0.00 | 0.08 | 0.08 | 84 | 1012.8 |
| 20260509002202 | 73 | 130 | 4.0 | 9.0 | 0.00 | 0.08 | 0.08 | 84 | 1012.8 |
| 20260509001701 | 73 | 91 | 4.0 | 9.0 | 0.00 | 0.08 | 0.08 | 84 | 1012.7 |
| 20260509001202 | 73 | 66 | 3.0 | 7.0 | 0.00 | 0.08 | 0.08 | 84 | 1012.9 |
| 20260509000701 | 73 | 144 | 2.0 | 6.0 | 0.00 | 0.08 | 0.08 | 85 | 1012.7 |
| 20260509000200 | 73 | 50 | 2.0 | 7.0 | 0.00 | 0.08 | 0.08 | 85 | 1012.5 |
| 20260508235201 | 74 | 81 | 4.0 | 9.0 | 0.00 | 0.08 | 0.08 | 83 | 1012.5 |
| 20260508234701 | 74 | 119 | 4.0 | 8.0 | 0.00 | 0.08 | 0.08 | 83 | 1012.4 |
| 20260508234201 | 74 | 124 | 3.0 | 10.0 | 0.00 | 0.08 | 0.08 | 82 | 1012.3 |
| 20260508233700 | 74 | 109 | 3.0 | 10.0 | 0.00 | 0.08 | 0.08 | 82 | 1012.2 |
| 20260508233201 | 74 | 30 | 3.0 | 8.0 | 0.00 | 0.08 | 0.08 | 82 | 1012.2 |
| 20260508232201 | 74 | 119 | 4.0 | 9.0 | 0.00 | 0.08 | 0.08 | 81 | 1012.0 |
| 20260508231701 | 75 | 22 | 4.0 | 10.0 | 0.00 | 0.08 | 0.08 | 81 | 1012.0 |
| 20260508231201 | 75 | 92 | 4.0 | 10.0 | 0.00 | 0.08 | 0.08 | 81 | 1012.1 |
| 20260508230700 | 75 | 83 | 3.0 | 9.0 | 0.00 | 0.08 | 0.08 | 80 | 1012.1 |
| 20260508230201 | 75 | 137 | 4.0 | 9.0 | 0.00 | 0.08 | 0.08 | 80 | 1012.1 |
| 20260508225700 | 75 | 358 | 4.0 | 9.0 | 0.00 | 0.08 | 0.08 | 80 | 1012.1 |
| 20260508225201 | 76 | 352 | 4.0 | 8.0 | 0.00 | 0.08 | 0.08 | 79 | 1011.9 |
| 20260508224701 | 76 | 38 | 4.0 | 8.0 | 0.00 | 0.08 | 0.08 | 80 | 1011.9 |
| 20260508224200 | 76 | 72 | 4.0 | 9.0 | 0.00 | 0.08 | 0.08 | 79 | 1012.0 |
| 20260508223701 | 76 | 16 | 4.0 | 10.0 | 0.00 | 0.08 | 0.08 | 79 | 1012.0 |
| 20260508223202 | 77 | 23 | 4.0 | 10.0 | 0.00 | 0.08 | 0.08 | 78 | 1011.9 |
| 20260508222701 | 77 | 31 | 5.0 | 9.0 | 0.00 | 0.08 | 0.08 | 77 | 1011.9 |
| 20260508221701 | 78 | 82 | 4.0 | 10.0 | 0.01 | 0.08 | 0.08 | 76 | 1011.7 |
| 20260508221201 | 78 | 150 | 4.0 | 10.0 | 0.01 | 0.08 | 0.08 | 76 | 1011.6 |
| 20260508220701 | 78 | 114 | 6.0 | 12.0 | 0.01 | 0.08 | 0.08 | 75 | 1011.6 |
| 20260508220201 | 78 | 107 | 6.0 | 12.0 | 0.01 | 0.08 | 0.08 | 74 | 1011.6 |
| 20260508215201 | 78 | 103 | 6.0 | 13.0 | 0.01 | 0.08 | 0.08 | 74 | 1011.6 |
| 20260508214701 | 78 | 8 | 7.0 | 13.0 | 0.01 | 0.08 | 0.08 | 75 | 1011.5 |
| 20260508214201 | 78 | 84 | 6.0 | 11.0 | 0.01 | 0.08 | 0.08 | 75 | 1011.4 |
| 20260508213702 | 78 | 91 | 7.0 | 12.0 | 0.01 | 0.08 | 0.08 | 75 | 1011.6 |
| 20260508213200 | 78 | 120 | 6.0 | 12.0 | 0.01 | 0.08 | 0.08 | 74 | 1011.5 |
| 20260508212201 | 79 | 125 | 6.0 | 11.0 | 0.00 | 0.07 | 0.07 | 74 | 1011.3 |
| 20260508211706 | 79 | 58 | 4.0 | 9.0 | 0.00 | 0.07 | 0.07 | 73 | 1011.3 |
| 20260508211202 | 79 | 88 | 4.0 | 8.0 | 0.00 | 0.07 | 0.07 | 73 | 1011.3 |
| 20260508210200 | 79 | 110 | 5.0 | 10.0 | 0.00 | 0.07 | 0.07 | 74 | 1011.6 |
| 20260508205202 | 79 | 90 | 5.0 | 14.0 | 0.00 | 0.07 | 0.07 | 74 | 1011.5 |
| 20260508204701 | 79 | 4 | 6.0 | 14.0 | 0.00 | 0.07 | 0.07 | 74 | 1011.6 |
| 20260508204200 | 79 | 84 | 5.0 | 9.0 | 0.01 | 0.07 | 0.07 | 73 | 1011.5 |
| 20260508203701 | 79 | 75 | 5.0 | 9.0 | 0.01 | 0.07 | 0.07 | 74 | 1011.4 |
| 20260508203201 | 79 | 70 | 4.0 | 9.0 | 0.01 | 0.07 | 0.07 | 72 | 1011.4 |
| 20260508202702 | 79 | 48 | 4.0 | 9.0 | 0.01 | 0.07 | 0.07 | 73 | 1011.4 |
| 20260508201702 | 79 | 105 | 4.0 | 10.0 | 0.01 | 0.07 | 0.07 | 72 | 1011.4 |
| 20260508201203 | 79 | 17 | 4.0 | 10.0 | 0.01 | 0.07 | 0.07 | 72 | 1011.5 |
| 20260508200700 | 79 | 81 | 4.0 | 10.0 | 0.02 | 0.07 | 0.07 | 72 | 1011.6 |
| 20260508195701 | 78 | 94 | 4.0 | 9.0 | 0.02 | 0.07 | 0.07 | 74 | 1012.0 |
| 20260508195202 | 77 | 34 | 4.0 | 9.0 | 0.02 | 0.07 | 0.07 | 75 | 1012.2 |
| 20260508194201 | 77 | 36 | 4.0 | 9.0 | 0.01 | 0.06 | 0.06 | 75 | 1012.6 |
| 20260508193701 | 77 | 121 | 4.0 | 9.0 | 0.02 | 0.06 | 0.06 | 76 | 1012.6 |
| 20260508193200 | 76 | 73 | 4.0 | 9.0 | 0.02 | 0.06 | 0.06 | 76 | 1012.6 |
| 20260508192700 | 76 | 48 | 3.0 | 7.0 | 0.01 | 0.06 | 0.06 | 77 | 1012.7 |
| 20260508191705 | 75 | 0 | 2.0 | 5.0 | 0.01 | 0.06 | 0.06 | 80 | 1012.8 |
| 20260508191202 | 76 | 45 | 3.0 | 6.0 | 0.01 | 0.06 | 0.06 | 78 | 1012.9 |
| 20260508190200 | 76 | 23 | 3.0 | 8.0 | 0.00 | 0.05 | 0.05 | 77 | 1013.1 |
| 20260508185202 | 76 | 56 | 4.0 | 10.0 | 0.01 | 0.05 | 0.05 | 77 | 1013.1 |
| 20260508184703 | 76 | 20 | 4.0 | 10.0 | 0.01 | 0.05 | 0.05 | 77 | 1013.2 |
| 20260508184200 | 76 | 29 | 4.0 | 8.0 | 0.01 | 0.05 | 0.05 | 77 | 1013.2 |
| 20260508183702 | 76 | 44 | 3.0 | 8.0 | 0.01 | 0.05 | 0.05 | 77 | 1013.3 |
| 20260508183202 | 76 | 0 | 2.0 | 6.0 | 0.01 | 0.05 | 0.05 | 77 | 1013.3 |
| 20260508182700 | 76 | 108 | 2.0 | 7.0 | 0.01 | 0.05 | 0.05 | 77 | 1013.4 |
| 20260508182202 | 76 | 47 | 3.0 | 7.0 | 0.01 | 0.05 | 0.05 | 77 | 1013.4 |
| 20260508181201 | 76 | 0 | 3.0 | 8.0 | 0.01 | 0.05 | 0.05 | 77 | 1013.4 |
| 20260508180702 | 76 | 28 | 3.0 | 8.0 | 0.01 | 0.05 | 0.05 | 77 | 1013.4 |
| 20260508180200 | 76 | 37 | 3.0 | 6.0 | 0.01 | 0.05 | 0.05 | 77 | 1013.4 |
| 20260508175702 | 76 | 98 | 3.0 | 9.0 | 0.01 | 0.05 | 0.05 | 77 | 1013.4 |
| 20260508175201 | 75 | 88 | 4.0 | 10.0 | 0.01 | 0.04 | 0.04 | 79 | 1013.5 |
| 20260508174701 | 75 | 133 | 5.0 | 10.0 | 0.01 | 0.04 | 0.04 | 79 | 1013.5 |
| 20260508174201 | 75 | 31 | 5.0 | 9.0 | 0.01 | 0.04 | 0.04 | 79 | 1013.4 |
| 20260508173701 | 75 | 106 | 4.0 | 10.0 | 0.00 | 0.04 | 0.04 | 79 | 1013.5 |
| 20260508173201 | 75 | 120 | 5.0 | 10.0 | 0.00 | 0.04 | 0.04 | 78 | 1013.5 |
| 20260508172701 | 74 | 66 | 6.0 | 9.0 | 0.03 | 0.04 | 0.04 | 81 | 1013.5 |
| 20260508172201 | 75 | 100 | 5.0 | 9.0 | 0.03 | 0.04 | 0.04 | 82 | 1013.7 |
| 20260508171702 | 75 | 96 | 3.0 | 8.0 | 0.03 | 0.04 | 0.04 | 82 | 1013.8 |
| 20260508171202 | 74 | 7 | 3.0 | 6.0 | 0.03 | 0.04 | 0.04 | 82 | 1013.8 |
| 20260508170702 | 74 | 150 | 4.0 | 8.0 | 0.03 | 0.04 | 0.04 | 83 | 1013.9 |
| 20260508170201 | 74 | 89 | 4.0 | 8.0 | 0.03 | 0.04 | 0.04 | 82 | 1013.9 |
| 20260508165701 | 74 | 125 | 4.0 | 8.0 | 0.03 | 0.04 | 0.04 | 83 | 1014.0 |
| 20260508164702 | 73 | 145 | 5.0 | 9.0 | 0.03 | 0.04 | 0.04 | 84 | 1014.0 |
| 20260508163702 | 73 | 104 | 4.0 | 6.0 | 0.03 | 0.04 | 0.04 | 84 | 1014.1 |
| 20260508163206 | 73 | 130 | 3.0 | 6.0 | 0.03 | 0.04 | 0.04 | 84 | 1014.3 |
| 20260508162702 | 73 | 136 | 3.0 | 6.0 | 0.01 | 0.01 | 0.01 | 84 | 1014.4 |
| 20260508162202 | 73 | 97 | 2.0 | 6.0 | 0.01 | 0.01 | 0.01 | 84 | 1014.4 |
| 20260508161701 | 73 | 117 | 2.0 | 6.0 | 0.01 | 0.01 | 0.01 | 83 | 1014.4 |
| 20260508161202 | 73 | 0 | 4.0 | 9.0 | 0.01 | 0.01 | 0.01 | 83 | 1014.5 |
| 20260508160701 | 73 | 9 | 5.0 | 9.0 | 0.01 | 0.01 | 0.01 | 82 | 1014.7 |
| 20260508160201 | 74 | 11 | 5.0 | 7.0 | 0.01 | 0.01 | 0.01 | 81 | 1014.7 |
| 20260508155702 | 74 | 354 | 4.0 | 7.0 | 0.01 | 0.01 | 0.01 | 80 | 1014.7 |
| 20260508154701 | 74 | 14 | 2.0 | 6.0 | 0.01 | 0.01 | 0.01 | 78 | 1014.6 |
| 20260508153202 | 74 | 36 | 3.0 | 6.0 | 0.01 | 0.01 | 0.01 | 78 | 1014.7 |
| 20260508152701 | 74 | 23 | 2.0 | 6.0 | 0.00 | 0.00 | 0.00 | 78 | 1014.7 |
| 20260508152204 | 74 | 52 | 2.0 | 5.0 | 0.00 | 0.00 | 0.00 | 77 | 1014.7 |
| 20260508151701 | 74 | 17 | 3.0 | 5.0 | 0.00 | 0.00 | 0.00 | 77 | 1014.8 |
| 20260508150701 | 74 | 22 | 2.0 | 7.0 | 0.00 | 0.00 | 0.00 | 79 | 1014.7 |
| 20260508150202 | 74 | 8 | 3.0 | 7.0 | 0.00 | 0.00 | 0.00 | 79 | 1014.6 |
| 20260508145701 | 74 | 64 | 3.0 | 7.0 | 0.00 | 0.00 | 0.00 | 80 | 1014.6 |
| 20260508145203 | 74 | 17 | 3.0 | 7.0 | 0.00 | 0.00 | 0.00 | 82 | 1014.7 |
| 20260508144702 | 74 | 32 | 3.0 | 9.0 | 0.00 | 0.00 | 0.00 | 82 | 1014.7 |
| 20260508144202 | 74 | 33 | 3.0 | 9.0 | 0.00 | 0.00 | 0.00 | 84 | 1014.7 |
| 20260508143702 | 74 | 42 | 4.0 | 9.0 | 0.00 | 0.00 | 0.00 | 87 | 1014.6 |
| 20260508143201 | 74 | 41 | 4.0 | 7.0 | 0.00 | 0.00 | 0.00 | 89 | 1014.5 |
| 20260508142201 | 74 | 87 | 3.0 | 8.0 | 0.00 | 0.00 | 0.00 | 89 | 1014.4 |
| 20260508141701 | 74 | 30 | 4.0 | 9.0 | 0.00 | 0.00 | 0.00 | 89 | 1014.4 |
| 20260508141201 | 75 | 27 | 4.0 | 9.0 | 0.00 | 0.00 | 0.00 | 89 | 1014.4 |
| 20260508140701 | 75 | 9 | 4.0 | 9.0 | 0.00 | 0.00 | 0.00 | 90 | 1014.3 |
| 20260508140200 | 75 | 36 | 4.0 | 9.0 | 0.00 | 0.00 | 0.00 | 90 | 1014.3 |
| 20260508135201 | 75 | 25 | 3.0 | 7.0 | 0.00 | 0.00 | 0.00 | 91 | 1014.3 |
| 20260508134702 | 75 | 356 | 3.0 | 7.0 | 0.00 | 0.00 | 0.00 | 90 | 1014.4 |
| 20260508134202 | 75 | 14 | 4.0 | 7.0 | 0.00 | 0.00 | 0.00 | 90 | 1014.4 |
| 20260508133701 | 75 | 333 | 3.0 | 7.0 | 0.00 | 0.00 | 0.00 | 90 | 1014.4 |
| 20260508132703 | 75 | 14 | 4.0 | 7.0 | 0.00 | 0.00 | 0.00 | 90 | 1014.3 |
| 20260508132201 | 75 | 329 | 3.0 | 7.0 | 0.00 | 0.00 | 0.00 | 90 | 1014.3 |
| 20260508131701 | 75 | 348 | 3.0 | 6.0 | 0.00 | 0.00 | 0.00 | 91 | 1014.1 |
| 20260508131201 | 75 | 29 | 3.0 | 9.0 | 0.00 | 0.00 | 0.00 | 91 | 1013.9 |
| 20260508130701 | 75 | 47 | 4.0 | 9.0 | 0.00 | 0.00 | 0.00 | 91 | 1014.1 |
| 20260508130201 | 75 | 14 | 4.0 | 8.0 | 0.00 | 0.00 | 0.00 | 92 | 1014.1 |
| 20260508125701 | 75 | 305 | 3.0 | 8.0 | 0.00 | 0.00 | 0.00 | 92 | 1014.1 |
| 20260508125201 | 75 | 13 | 4.0 | 7.0 | 0.00 | 0.00 | 0.00 | 92 | 1014.1 |
| 20260508124201 | 74 | 10 | 5.0 | 7.0 | 0.00 | 0.00 | 0.00 | 93 | 1014.1 |
| 20260508123700 | 74 | 23 | 5.0 | 7.0 | 0.00 | 0.00 | 0.00 | 93 | 1014.0 |
| 20260508123201 | 74 | 38 | 4.0 | 8.0 | 0.00 | 0.00 | 0.00 | 93 | 1014.0 |
| 20260508122700 | 74 | 4 | 3.0 | 8.0 | 0.00 | 0.00 | 0.00 | 94 | 1013.8 |
| 20260508122201 | 74 | 302 | 2.0 | 6.0 | 0.00 | 0.00 | 0.00 | 95 | 1013.8 |
| 20260508121200 | 74 | 313 | 3.0 | 6.0 | 0.00 | 0.00 | 0.00 | 95 | 1013.7 |
| 20260508120701 | 74 | 22 | 3.0 | 6.0 | 0.00 | 0.00 | 0.00 | 96 | 1013.7 |
| 20260508120201 | 74 | 351 | 3.0 | 5.0 | 0.00 | 0.01 | 0.00 | 96 | 1013.7 |
| 20260508115701 | 74 | 325 | 3.0 | 5.0 | 0.00 | 0.01 | 0.00 | 96 | 1013.6 |
| 20260508115202 | 74 | 11 | 3.0 | 4.0 | 0.00 | 0.01 | 0.00 | 96 | 1013.5 |
| 20260508114703 | 74 | 7 | 3.0 | 4.0 | 0.00 | 0.01 | 0.00 | 96 | 1013.5 |
| 20260508114203 | 74 | 328 | 3.0 | 4.0 | 0.00 | 0.01 | 0.00 | 96 | 1013.3 |
| 20260508113702 | 74 | 338 | 2.0 | 4.0 | 0.00 | 0.01 | 0.00 | 96 | 1013.2 |
| 20260508113202 | 74 | 346 | 1.0 | 3.0 | 0.00 | 0.01 | 0.00 | 96 | 1013.2 |
| 20260508112701 | 74 | 343 | 0.0 | 2.0 | 0.00 | 0.01 | 0.00 | 96 | 1013.2 |
| 20260508112202 | 74 | 323 | 1.0 | 2.0 | 0.00 | 0.01 | 0.00 | 96 | 1013.1 |
| 20260508111702 | 74 | 0 | 1.0 | 4.0 | 0.00 | 0.01 | 0.00 | 96 | 1013.0 |
| 20260508111202 | 74 | 300 | 1.0 | 4.0 | 0.00 | 0.01 | 0.00 | 96 | 1012.9 |
| 20260508110202 | 74 | 0 | 0.0 | 2.0 | 0.00 | 0.01 | 0.00 | 96 | 1012.8 |
| 20260508105701 | 74 | 0 | 1.0 | 2.0 | 0.00 | 0.01 | 0.00 | 97 | 1012.7 |
| 20260508105207 | 74 | 333 | 1.0 | 2.0 | 0.00 | 0.01 | 0.00 | 97 | 1012.6 |
| 20260508104702 | 74 | 0 | 1.0 | 3.0 | 0.00 | 0.01 | 0.00 | 97 | 1012.5 |
| 20260508104202 | 74 | 278 | 1.0 | 3.0 | 0.00 | 0.01 | 0.00 | 97 | 1012.3 |
| 20260508103701 | 74 | 0 | 1.0 | 3.0 | 0.00 | 0.01 | 0.00 | 97 | 1012.1 |
| 20260508102702 | 73 | 28 | 1.0 | 4.0 | 0.00 | 0.01 | 0.00 | 97 | 1012.0 |
| 20260508102202 | 73 | 359 | 0.0 | 3.0 | 0.00 | 0.01 | 0.00 | 97 | 1012.1 |
| 20260508101702 | 73 | 0 | 0.0 | 2.0 | 0.00 | 0.01 | 0.00 | 97 | 1012.0 |
| 20260508100701 | 73 | 0 | 0.0 | 0.0 | 0.00 | 0.01 | 0.00 | 97 | 1011.8 |
| 20260508100202 | 73 | 0 | 0.0 | 0.0 | 0.00 | 0.01 | 0.00 | 97 | 1011.8 |
| 20260508095701 | 73 | 0 | 0.0 | 0.0 | 0.00 | 0.01 | 0.00 | 97 | 1011.7 |
| 20260508095202 | 73 | 0 | 0.0 | 0.0 | 0.00 | 0.01 | 0.00 | 97 | 1011.8 |
| 20260508094701 | 73 | 0 | 0.0 | 3.0 | 0.00 | 0.01 | 0.00 | 97 | 1011.8 |
| 20260508093702 | 73 | 251 | 0.0 | 3.0 | 0.00 | 0.01 | 0.00 | 97 | 1011.6 |
| 20260508093202 | 73 | 0 | 0.0 | 0.0 | 0.00 | 0.01 | 0.00 | 97 | 1011.5 |
| 20260508092702 | 73 | 0 | 0.0 | 0.0 | 0.00 | 0.01 | 0.00 | 97 | 1011.6 |
| 20260508092202 | 73 | 0 | 0.0 | 0.0 | 0.00 | 0.01 | 0.00 | 96 | 1011.5 |
| 20260508091702 | 73 | 0 | 0.0 | 0.0 | 0.00 | 0.01 | 0.00 | 96 | 1011.5 |
| 20260508091202 | 73 | 0 | 0.0 | 1.0 | 0.00 | 0.01 | 0.00 | 96 | 1011.5 |
| 20260508090701 | 73 | 0 | 0.0 | 1.0 | 0.00 | 0.01 | 0.00 | 96 | 1011.5 |
| 20260508090201 | 73 | 0 | 0.0 | 0.0 | 0.00 | 0.01 | 0.00 | 96 | 1011.4 |
| 20260508085201 | 73 | 0 | 0.0 | 1.0 | 0.00 | 0.01 | 0.00 | 96 | 1011.4 |
| 20260508084702 | 73 | 0 | 0.0 | 0.0 | 0.00 | 0.01 | 0.00 | 96 | 1011.4 |
| 20260508084202 | 73 | 0 | 0.0 | 0.0 | 0.00 | 0.01 | 0.00 | 96 | 1011.5 |
| 20260508083702 | 73 | 0 | 0.0 | 0.0 | 0.00 | 0.01 | 0.00 | 96 | 1011.6 |
| 20260508083201 | 73 | 0 | 0.0 | 0.0 | 0.00 | 0.01 | 0.00 | 96 | 1011.6 |
| 20260508082701 | 73 | 0 | 0.0 | 0.0 | 0.00 | 0.01 | 0.00 | 96 | 1011.4 |
| 20260508082203 | 73 | 0 | 0.0 | 0.0 | 0.00 | 0.01 | 0.00 | 95 | 1011.6 |
| 20260508081701 | 73 | 0 | 0.0 | 0.0 | 0.00 | 0.01 | 0.00 | 95 | 1011.6 |
| 20260508081202 | 73 | 0 | 0.0 | 0.0 | 0.00 | 0.01 | 0.00 | 95 | 1011.6 |
| 20260508080702 | 73 | 0 | 0.0 | 0.0 | 0.00 | 0.01 | 0.00 | 95 | 1011.5 |
| 20260508080202 | 74 | 0 | 0.0 | 1.0 | 0.00 | 0.01 | 0.00 | 95 | 1011.4 |
| 20260508075702 | 74 | 135 | 0.0 | 1.0 | 0.00 | 0.01 | 0.00 | 95 | 1011.4 |
| 20260508075202 | 74 | 0 | 0.0 | 0.0 | 0.00 | 0.01 | 0.00 | 95 | 1011.6 |
| 20260508074701 | 74 | 0 | 0.0 | 0.0 | 0.00 | 0.01 | 0.00 | 95 | 1011.6 |
| 20260508074201 | 74 | 0 | 0.0 | 2.0 | 0.00 | 0.01 | 0.00 | 95 | 1011.6 |
| 20260508073202 | 74 | 0 | 0.0 | 0.0 | 0.00 | 0.01 | 0.00 | 94 | 1011.8 |
| 20260508072702 | 74 | 0 | 0.0 | 0.0 | 0.00 | 0.01 | 0.00 | 94 | 1011.7 |
| 20260508072203 | 74 | 0 | 0.0 | 0.0 | 0.00 | 0.01 | 0.00 | 94 | 1011.8 |
| 20260508071702 | 74 | 0 | 0.0 | 1.0 | 0.00 | 0.01 | 0.00 | 94 | 1011.8 |
| 20260508071202 | 74 | 0 | 0.0 | 1.0 | 0.00 | 0.01 | 0.00 | 94 | 1011.8 |
| 20260508070702 | 74 | 0 | 0.0 | 1.0 | 0.00 | 0.01 | 0.00 | 94 | 1011.9 |
| 20260508070201 | 74 | 0 | 0.0 | 0.0 | 0.00 | 0.01 | 0.00 | 94 | 1012.0 |
| 20260508065701 | 74 | 0 | 0.0 | 0.0 | 0.00 | 0.01 | 0.00 | 94 | 1012.0 |
| 20260508064702 | 74 | 0 | 0.0 | 0.0 | 0.00 | 0.01 | 0.00 | 93 | 1012.1 |
| 20260508064202 | 74 | 0 | 0.0 | 0.0 | 0.00 | 0.01 | 0.00 | 93 | 1012.0 |
| 20260508063702 | 74 | 0 | 0.0 | 0.0 | 0.00 | 0.01 | 0.00 | 93 | 1012.1 |
| 20260508063202 | 74 | 0 | 0.0 | 0.0 | 0.00 | 0.01 | 0.00 | 93 | 1012.1 |
| 20260508062702 | 74 | 0 | 0.0 | 0.0 | 0.00 | 0.01 | 0.00 | 93 | 1012.2 |
| 20260508062203 | 74 | 0 | 0.0 | 0.0 | 0.00 | 0.01 | 0.00 | 93 | 1012.2 |
| 20260508061703 | 75 | 0 | 0.0 | 0.0 | 0.00 | 0.01 | 0.00 | 92 | 1012.2 |
| 20260508061202 | 75 | 0 | 0.0 | 1.0 | 0.00 | 0.01 | 0.00 | 92 | 1012.2 |
| 20260508060702 | 75 | 0 | 0.0 | 1.0 | 0.00 | 0.01 | 0.00 | 92 | 1012.3 |
| 20260508060202 | 75 | 0 | 0.0 | 1.0 | 0.00 | 0.01 | 0.00 | 92 | 1012.4 |
| 20260508055701 | 75 | 0 | 0.0 | 1.0 | 0.00 | 0.01 | 0.00 | 92 | 1012.4 |
| 20260508055202 | 75 | 0 | 0.0 | 1.0 | 0.00 | 0.01 | 0.00 | 92 | 1012.4 |
| 20260508054702 | 75 | 155 | 0.0 | 1.0 | 0.00 | 0.01 | 0.00 | 92 | 1012.5 |
| 20260508054202 | 75 | 0 | 0.0 | 0.0 | 0.00 | 0.01 | 0.00 | 92 | 1012.5 |
| 20260508053706 | 75 | 0 | 0.0 | 1.0 | 0.00 | 0.01 | 0.00 | 92 | 1012.5 |
| 20260508053202 | 75 | 0 | 0.0 | 1.0 | 0.00 | 0.01 | 0.00 | 91 | 1012.5 |
| 20260508052701 | 75 | 0 | 0.0 | 1.0 | 0.00 | 0.01 | 0.00 | 91 | 1012.5 |
| 20260508051655 | 75 | 0 | 0.0 | 1.0 | 0.00 | 0.01 | 0.00 | 91 | 1012.5 |
| 20260508051154 | 75 | 0 | 0.0 | 1.0 | 0.00 | 0.01 | 0.00 | 91 | 1012.4 |
| 20260508050654 | 75 | 0 | 0.0 | 2.0 | 0.00 | 0.01 | 0.00 | 90 | 1012.5 |
| 20260508050155 | 76 | 0 | 0.0 | 2.0 | 0.00 | 0.01 | 0.00 | 90 | 1012.4 |
| 20260508045655 | 76 | 0 | 0.0 | 2.0 | 0.00 | 0.01 | 0.00 | 90 | 1012.4 |
| 20260508045155 | 76 | 0 | 0.0 | 2.0 | 0.00 | 0.01 | 0.00 | 90 | 1012.4 |
| 20260508044654 | 76 | 0 | 0.0 | 2.0 | 0.00 | 0.01 | 0.00 | 90 | 1012.4 |
| 20260508043655 | 76 | 0 | 0.0 | 2.0 | 0.00 | 0.01 | 0.00 | 89 | 1012.4 |
| 20260508043142 | 76 | 209 | 1.0 | 2.0 | 0.00 | 0.01 | 0.00 | 89 | 1012.4 |
| 20260508041640 | 77 | 0 | 0.0 | 2.0 | 0.00 | 0.01 | 0.00 | 89 | 1012.4 |
| 20260508040140 | 77 | 0 | 1.0 | 4.0 | 0.00 | 0.01 | 0.00 | 88 | 1012.5 |
| 20260508035641 | 76 | 0 | 1.0 | 4.0 | 0.00 | 0.01 | 0.01 | 88 | 1012.5 |
| 20260508035130 | 76 | 0 | 0.0 | 2.0 | 0.00 | 0.01 | 0.01 | 88 | 1012.4 |
| 20260508034635 | 77 | 351 | 2.0 | 5.0 | 0.00 | 0.01 | 0.01 | 88 | 1012.5 |
| 20260508034130 | 77 | 187 | 1.0 | 5.0 | 0.00 | 0.01 | 0.01 | 88 | 1012.4 |
| 20260508033629 | 77 | 237 | 0.0 | 2.0 | 0.00 | 0.01 | 0.01 | 87 | 1012.5 |
| 20260508033130 | 77 | 0 | 1.0 | 3.0 | 0.00 | 0.01 | 0.01 | 87 | 1012.4 |
| 20260508032630 | 78 | 152 | 2.0 | 6.0 | 0.00 | 0.01 | 0.01 | 86 | 1012.3 |
| 20260508032128 | 78 | 191 | 2.0 | 6.0 | 0.00 | 0.01 | 0.01 | 86 | 1012.3 |
| 20260508031629 | 78 | 0 | 1.0 | 3.0 | 0.00 | 0.01 | 0.01 | 85 | 1012.1 |
| 20260508031131 | 0 | 198 | 3.0 | 3.0 | 0.00 | 0.01 | 0.01 | ||
| 20260508030630 | 0 | 198 | 3.0 | 4.0 | 0.00 | 0.01 | 0.01 | ||
| 20260508030129 | 78 | 312 | 1.0 | 4.0 | 0.00 | 0.01 | 0.01 | 84 | 1012.0 |
| 20260508025130 | 78 | 214 | 1.0 | 2.0 | 0.00 | 0.01 | 0.01 | 84 | 1012.0 |
| 20260508024629 | 78 | 188 | 1.0 | 3.0 | 0.00 | 0.01 | 0.01 | 83 | 1012.0 |